Home   Weather   Glendale   Past weeks

Flag for USA Past Weather in Glendale, Arizona, USA — Yesterday and Last 2 Weeks

Now
65 °F

Clear.


Feels Like: 65 °F
Forecast: 58 / 86 °F
Wind: 8 mph from Northeast

Location: Phoenix-Deer Valley Municipal Airport

Current Time: Apr 30, 2017 at 12:27:58 am

Latest Report: Apr 29, 2017 at 11:53 pm


Visibility: 10 mi

Pressure: 29.94 "Hg

Humidity: 18%

Dew Point: 20 °F

Location of GlendaleLocation

Past Weather in Glendale — Graph

°F

Glendale Temperature Yesterday

Maximum temperature yesterday: 78 °F (at 2:53 pm)
Minimum temperature yesterday: 56 °F (at 5:53 am)
Average temperature yesterday: 68 °F

High & Low Weather Summary for the Past Weeks

 TemperatureHumidityPressure
High95 °F (Apr 23, 4:53 pm)49% (Apr 25, 5:53 am)29.95 "Hg (Apr 25, 5:53 am)
Low56 °F (Apr 15, 4:53 am)4% (Apr 20, 4:53 pm)29.49 "Hg (Apr 27, 5:53 pm)
Average75 °F17%29.76 "Hg
* Reported Apr 14 10:53 pm — Apr 29 10:53 pm, Glendale, Weather by CustomWeather, © 2017

Note: Actual official high and low records may vary slightly from our data, if they occured in-between our weather recording intervals... More about our weather records

Advertising

Glendale Weather History for the Previous 24 Hours

Scroll right to see more
 ConditionsComfort  
Time TempWeatherWind HumidityBarometerVisibility
10:53 pm
Sat, Apr 29
67 °FClear.9 mph16%29.92 "Hg10 mi
9:53 pm69 °FClear.5 mph11%29.90 "Hg10 mi
8:53 pm70 °FClear.No wind11%29.87 "Hg10 mi
7:53 pm74 °FClear.3 mph9%29.84 "Hg10 mi
6:53 pm78 °FSunny.10 mph8%29.82 "Hg10 mi
5:53 pm78 °FSunny.9 mph9%29.81 "Hg10 mi
4:53 pm78 °FSunny.7 mph10%29.80 "Hg10 mi
3:53 pm77 °FSunny.13 mph11%29.81 "Hg10 mi
2:53 pm78 °FSunny.14 mph10%29.83 "Hg10 mi
1:53 pm76 °FSunny.12 mph11%29.85 "Hg10 mi
12:53 pm74 °FSunny.10 mph12%29.86 "Hg10 mi
11:53 am72 °FSunny.14 mph13%29.88 "Hg10 mi
10:53 am72 °FSunny.15 mph12%29.90 "Hg10 mi
9:53 am67 °FSunny.No wind15%29.90 "Hg10 mi
8:53 am67 °FSunny.12 mph16%29.89 "Hg10 mi
7:53 am63 °FSunny.12 mph17%29.88 "Hg10 mi
6:53 am59 °FSunny.9 mph20%29.85 "Hg10 mi
5:53 am56 °FSunny.10 mph21%29.83 "Hg10 mi
4:53 am57 °FClear.8 mph20%29.80 "Hg10 mi
3:53 am59 °FClear.13 mph18%29.78 "Hg10 mi
2:53 am59 °FClear.15 mph17%29.76 "Hg10 mi
1:53 am60 °FClear.17 mph15%29.75 "Hg10 mi
12:53 am61 °FClear.16 mph14%29.74 "Hg10 mi
Weather by CustomWeather, © 2017

See weather overviewHow to use our weather pages